Time,TemperatureF,DewpointF,PressureIn,WindDirection,WindDirectionDegrees,WindSpeedMPH,WindSpeedGustMPH,Humidity,HourlyPrecipIn,Conditions,Clouds,dailyrainin,SoftwareType,DateUTC
2013-01-14 00:02:00,41.7,16.7,30.25,NW,323,3.9,5.8,36,0.00,CLR,,0.00,WeatherDisplay:10.37,2013-01-14 08:02:00,
2013-01-14 00:08:00,41.4,16.4,30.24,NW,312,5.4,9.3,36,0.00,CLR,,0.00,WeatherDisplay:10.37,2013-01-14 08:08:00,
2013-01-14 00:13:00,41.5,16.5,30.25,NW,309,4.3,8.3,36,0.00,CLR,,0.00,WeatherDisplay:10.37,2013-01-14 08:13:00,
2013-01-14 00:18:00,41.6,16.6,30.25,NW,309,3.8,6.9,36,0.00,CLR,,0.00,WeatherDisplay:10.37,2013-01-14 08:18:00,
2013-01-14 00:23:00,41.7,16.7,30.25,WNW,295,0.9,3.5,36,0.00,CLR,,0.00,WeatherDisplay:10.37,2013-01-14 08:23:00,
2013-01-14 00:28:00,41.2,16.2,30.25,NNE,18,1.7,5.7,36,0.00,CLR,,0.00,WeatherDisplay:10.37,2013-01-14 08:28:00,
2013-01-14 00:33:00,40.9,16.0,30.25,NNE,16,3.4,5.8,36,0.00,CLR,,0.00,WeatherDisplay:10.37,2013-01-14 08:33:00,
2013-01-14 00:38:00,41.1,16.1,30.25,NNW,330,2.8,6.9,36,0.00,CLR,,0.00,WeatherDisplay:10.37,2013-01-14 08:38:00,
2013-01-14 00:43:00,41.2,16.2,30.25,North,349,3.1,5.8,36,0.00,CLR,,0.00,WeatherDisplay:10.37,2013-01-14 08:43:00,
2013-01-14 00:48:00,41.3,16.3,30.25,NW,311,4.2,8.1,36,0.00,CLR,,0.00,WeatherDisplay:10.37,2013-01-14 08:48:00,
2013-01-14 00:53:00,41.3,16.3,30.25,WNW,288,3.7,11.5,36,0.00,CLR,,0.00,WeatherDisplay:10.37,2013-01-14 08:53:00,
2013-01-14 00:58:00,41.3,16.3,30.26,NNW,335,3.0,8.0,36,0.00,CLR,,0.00,WeatherDisplay:10.37,2013-01-14 08:58:00,
2013-01-14 01:03:00,41.2,16.2,30.26,North,360,2.6,6.9,36,0.00,CLR,,0.00,WeatherDisplay:10.37,2013-01-14 09:03:00,
2013-01-14 01:08:00,41.4,16.4,30.26,NW,305,4.6,8.1,36,0.00,CLR,,0.00,WeatherDisplay:10.37,2013-01-14 09:08:00,
2013-01-14 01:13:00,41.4,16.4,30.26,NW,311,5.7,8.8,36,0.00,CLR,,0.00,WeatherDisplay:10.37,2013-01-14 09:13:00,
2013-01-14 01:18:00,41.6,16.6,30.26,WNW,287,3.9,6.9,36,0.00,CLR,,0.00,WeatherDisplay:10.37,2013-01-14 09:18:00,
2013-01-14 01:23:00,41.4,16.4,30.26,NNW,332,5.1,8.8,36,0.00,CLR,,0.00,WeatherDisplay:10.37,2013-01-14 09:23:00,
2013-01-14 01:28:00,41.2,16.2,30.26,NNW,347,4.2,8.4,36,0.00,CLR,,0.00,WeatherDisplay:10.37,2013-01-14 09:28:00,
2013-01-14 01:33:00,41.6,16.6,30.26,NW,318,5.6,10.4,36,0.00,CLR,,0.00,WeatherDisplay:10.37,2013-01-14 09:33:00,
2013-01-14 01:39:00,41.5,16.5,30.26,NNW,339,5.5,9.4,36,0.00,CLR,,0.00,WeatherDisplay:10.37,2013-01-14 09:39:00,
2013-01-14 01:44:00,41.3,16.3,30.26,NNW,332,4.3,9.4,36,0.00,CLR,,0.00,WeatherDisplay:10.37,2013-01-14 09:44:00,
2013-01-14 01:49:00,41.5,16.5,30.25,WNW,284,4.7,11.5,36,0.00,CLR,,0.00,WeatherDisplay:10.37,2013-01-14 09:49:00,
2013-01-14 01:54:00,41.6,16.6,30.26,NW,326,5.9,16.1,36,0.00,CLR,,0.00,WeatherDisplay:10.37,2013-01-14 09:54:00,
2013-01-14 01:59:00,41.4,16.4,30.26,NNE,21,7.2,11.5,36,0.00,CLR,,0.00,WeatherDisplay:10.37,2013-01-14 09:59:00,
2013-01-14 02:04:00,41.4,16.4,30.26,NNW,344,6.4,13.8,36,0.00,CLR,,0.00,WeatherDisplay:10.37,2013-01-14 10:04:00,
2013-01-14 02:09:00,41.2,16.2,30.26,NW,323,5.1,10.3,36,0.00,CLR,,0.00,WeatherDisplay:10.37,2013-01-14 10:09:00,
2013-01-14 02:14:00,41.3,16.3,30.26,West,281,4.6,10.4,36,0.00,CLR,,0.00,WeatherDisplay:10.37,2013-01-14 10:14:00,
2013-01-14 02:19:00,41.3,16.3,30.26,NNW,344,2.3,6.9,36,0.00,CLR,,0.00,WeatherDisplay:10.37,2013-01-14 10:19:00,
2013-01-14 02:24:00,41.2,16.2,30.27,NNE,20,4.8,10.4,36,0.00,CLR,,0.00,WeatherDisplay:10.37,2013-01-14 10:24:00,
2013-01-14 02:30:00,41.1,16.2,30.27,NNW,332,3.0,10.0,36,0.00,CLR,,0.00,WeatherDisplay:10.37,2013-01-14 10:30:00,
2013-01-14 02:35:00,41.1,16.1,30.27,NNW,331,3.0,8.0,36,0.00,CLR,,0.00,WeatherDisplay:10.37,2013-01-14 10:35:00,
2013-01-14 02:40:00,41.5,16.5,30.27,NNW,329,5.0,11.0,36,0.00,CLR,,0.00,WeatherDisplay:10.37,2013-01-14 10:40:00,
2013-01-14 02:45:00,41.4,16.4,30.28,NW,325,5.0,16.0,36,0.00,CLR,,0.00,WeatherDisplay:10.37,2013-01-14 10:45:00,
2013-01-14 02:50:00,41.2,16.3,30.28,WNW,285,1.0,6.0,36,0.00,CLR,,0.00,WeatherDisplay:10.37,2013-01-14 10:50:00,
2013-01-14 02:55:00,40.6,15.7,30.28,SW,229,2.0,5.0,36,0.00,CLR,,0.00,WeatherDisplay:10.37,2013-01-14 10:55:00,
2013-01-14 03:00:00,40.5,15.6,30.28,SW,226,1.0,5.0,36,0.00,CLR,,0.00,WeatherDisplay:10.37,2013-01-14 11:00:00,
2013-01-14 03:05:00,40.0,15.2,30.28,SSW,210,0.0,3.0,36,0.00,CLR,,0.00,WeatherDisplay:10.37,2013-01-14 11:05:00,
2013-01-14 03:10:00,39.6,14.8,30.28,SSW,200,0.0,5.0,36,0.00,CLR,,0.00,WeatherDisplay:10.37,2013-01-14 11:10:00,
2013-01-14 03:15:00,39.4,14.6,30.29,SSW,211,1.0,2.0,36,0.00,CLR,,0.00,WeatherDisplay:10.37,2013-01-14 11:15:00,
2013-01-14 03:20:00,38.8,16.5,30.29,WSW,251,2.0,5.0,40,0.00,CLR,,0.00,WeatherDisplay:10.37,2013-01-14 11:20:00,
2013-01-14 03:25:00,38.6,16.3,30.29,West,276,1.0,5.0,40,0.00,CLR,,0.00,WeatherDisplay:10.37,2013-01-14 11:25:00,
2013-01-14 03:30:00,39.5,17.1,30.30,West,269,1.0,3.0,40,0.00,CLR,,0.00,WeatherDisplay:10.37,2013-01-14 11:30:00,
2013-01-14 03:35:00,38.7,16.4,30.30,WSW,252,0.0,0.0,40,0.00,CLR,,0.00,WeatherDisplay:10.37,2013-01-14 11:35:00,
2013-01-14 03:40:00,38.2,16.0,30.30,WSW,248,0.0,0.0,40,0.00,CLR,,0.00,WeatherDisplay:10.37,2013-01-14 11:40:00,
2013-01-14 03:45:00,37.1,15.0,30.29,WSW,248,0.0,0.0,40,0.00,CLR,,0.00,WeatherDisplay:10.37,2013-01-14 11:45:00,
2013-01-14 03:50:00,36.9,14.8,30.29,WSW,248,0.0,0.0,40,0.00,CLR,,0.00,WeatherDisplay:10.37,2013-01-14 11:50:00,
2013-01-14 03:55:00,36.3,14.2,30.30,WSW,248,0.0,0.0,40,0.00,CLR,,0.00,WeatherDisplay:10.37,2013-01-14 11:55:00,
2013-01-14 04:00:00,35.7,13.7,30.30,WSW,248,0.0,0.0,40,0.00,CLR,,0.00,WeatherDisplay:10.37,2013-01-14 12:00:00,
2013-01-14 04:05:00,35.7,13.7,30.30,NNW,344,0.2,1.3,40,0.00,CLR,,0.00,WeatherDisplay:10.37,2013-01-14 12:05:00,
2013-01-14 04:10:00,35.5,13.5,30.30,NNW,335,0.0,0.0,40,0.00,CLR,,0.00,WeatherDisplay:10.37,2013-01-14 12:10:00,
2013-01-14 04:15:00,34.7,12.8,30.30,NNW,339,0.0,0.0,40,0.00,CLR,,0.00,WeatherDisplay:10.37,2013-01-14 12:15:00,
2013-01-14 04:20:00,34.7,12.2,30.30,NNW,339,0.0,0.0,39,0.00,CLR,,0.00,WeatherDisplay:10.37,2013-01-14 12:20:00,
2013-01-14 04:25:00,34.3,11.9,30.30,NNW,339,0.0,0.0,39,0.00,CLR,,0.00,WeatherDisplay:10.37,2013-01-14 12:25:00,
2013-01-14 04:30:00,34.0,11.6,30.30,NNW,339,0.0,0.0,39,0.00,CLR,,0.00,WeatherDisplay:10.37,2013-01-14 12:30:00,
2013-01-14 04:35:00,34.4,12.0,30.30,NNW,339,0.0,0.0,39,0.00,CLR,,0.00,WeatherDisplay:10.37,2013-01-14 12:35:00,
2013-01-14 04:40:00,34.1,11.7,30.31,NNW,339,0.0,0.0,39,0.00,CLR,,0.00,WeatherDisplay:10.37,2013-01-14 12:40:00,
2013-01-14 04:45:00,34.7,12.2,30.31,WNW,302,1.5,2.3,39,0.00,CLR,,0.00,WeatherDisplay:10.37,2013-01-14 12:45:00,
2013-01-14 04:50:00,34.4,12.0,30.31,WNW,301,0.0,0.0,39,0.00,CLR,,0.00,WeatherDisplay:10.37,2013-01-14 12:50:00,
2013-01-14 04:55:00,33.5,11.2,30.31,WNW,301,0.0,0.0,39,0.00,CLR,,0.00,WeatherDisplay:10.37,2013-01-14 12:55:00,
2013-01-14 05:00:00,33.3,11.0,30.31,ENE,58,0.0,0.0,39,0.00,CLR,,0.00,WeatherDisplay:10.37,2013-01-14 13:00:00,
2013-01-14 05:05:00,33.9,11.5,30.31,NE,56,0.0,0.0,39,0.00,CLR,,0.00,WeatherDisplay:10.37,2013-01-14 13:05:00,
2013-01-14 05:10:00,33.8,11.4,30.30,SW,224,0.1,1.1,39,0.00,CLR,,0.00,WeatherDisplay:10.37,2013-01-14 13:10:00,
2013-01-14 05:15:00,34.4,12.0,30.31,NNW,339,0.0,0.0,39,0.00,CLR,,0.00,WeatherDisplay:10.37,2013-01-14 13:15:00,
2013-01-14 05:20:00,33.4,11.1,30.30,SW,223,2.0,4.6,39,0.00,CLR,,0.00,WeatherDisplay:10.37,2013-01-14 13:20:00,
2013-01-14 05:25:00,34.4,12.0,30.31,SSW,200,0.0,0.0,39,0.00,CLR,,0.00,WeatherDisplay:10.37,2013-01-14 13:25:00,
2013-01-14 05:30:00,34.0,11.6,30.31,WSW,241,1.0,2.3,39,0.00,CLR,,0.00,WeatherDisplay:10.37,2013-01-14 13:30:00,
2013-01-14 05:35:00,34.9,12.4,30.31,West,274,0.1,1.1,39,0.00,CLR,,0.00,WeatherDisplay:10.37,2013-01-14 13:35:00,
2013-01-14 05:40:00,34.4,12.0,30.31,West,274,0.0,0.0,39,0.00,CLR,,0.00,WeatherDisplay:10.37,2013-01-14 13:40:00,
2013-01-14 05:45:00,34.6,12.1,30.32,NNW,339,0.1,2.3,39,0.00,CLR,,0.00,WeatherDisplay:10.37,2013-01-14 13:45:00,
2013-01-14 05:50:00,35.9,13.3,30.32,NNW,340,2.0,3.5,39,0.00,CLR,,0.00,WeatherDisplay:10.37,2013-01-14 13:50:00,
2013-01-14 05:55:00,34.4,12.0,30.32,East,90,3.4,4.6,39,0.00,CLR,,0.00,WeatherDisplay:10.37,2013-01-14 13:55:00,
2013-01-14 06:00:00,34.8,12.3,30.32,NNW,333,1.9,2.9,39,0.00,CLR,,0.00,WeatherDisplay:10.37,2013-01-14 14:00:00,
2013-01-14 06:05:00,34.4,10.8,30.32,North,352,0.0,0.0,37,0.00,CLR,,0.00,WeatherDisplay:10.37,2013-01-14 14:05:00,
2013-01-14 06:10:00,33.4,9.9,30.32,North,352,0.0,0.0,37,0.00,CLR,,0.00,WeatherDisplay:10.37,2013-01-14 14:10:00,
2013-01-14 06:15:00,33.7,10.1,30.33,North,352,0.0,0.0,37,0.00,CLR,,0.00,WeatherDisplay:10.37,2013-01-14 14:15:00,
2013-01-14 06:20:00,33.3,9.8,30.34,North,352,0.0,0.0,37,0.00,CLR,,0.00,WeatherDisplay:10.37,2013-01-14 14:20:00,
2013-01-14 06:25:00,33.6,10.1,30.33,WNW,282,1.1,2.0,37,0.00,CLR,,0.00,WeatherDisplay:10.37,2013-01-14 14:25:00,
2013-01-14 06:30:00,33.3,9.8,30.33,NW,306,0.0,0.0,37,0.00,CLR,,0.00,WeatherDisplay:10.37,2013-01-14 14:30:00,
2013-01-14 06:35:00,33.1,9.6,30.33,NW,306,0.0,0.0,37,0.00,CLR,,0.00,WeatherDisplay:10.37,2013-01-14 14:35:00,
2013-01-14 06:40:00,32.5,9.1,30.34,NW,306,0.0,0.0,37,0.00,CLR,,0.00,WeatherDisplay:10.37,2013-01-14 14:40:00,
2013-01-14 06:45:00,32.7,9.3,30.33,West,270,0.0,0.0,37,0.00,CLR,,0.00,WeatherDisplay:10.37,2013-01-14 14:45:00,
2013-01-14 06:50:00,32.7,9.3,30.33,WNW,288,2.3,4.6,37,0.00,CLR,,0.00,WeatherDisplay:10.37,2013-01-14 14:50:00,
2013-01-14 06:55:00,33.4,9.9,30.34,NW,313,0.5,2.3,37,0.00,CLR,,0.00,WeatherDisplay:10.37,2013-01-14 14:55:00,
2013-01-14 07:00:00,32.8,9.3,30.35,WNW,282,1.2,2.1,37,0.00,CLR,,0.00,WeatherDisplay:10.37,2013-01-14 15:00:00,
2013-01-14 07:05:00,33.4,9.9,30.35,West,264,0.0,0.0,37,0.00,CLR,,0.00,WeatherDisplay:10.37,2013-01-14 15:05:00,
2013-01-14 07:10:00,32.8,9.3,30.35,West,260,1.0,2.2,37,0.00,CLR,,0.00,WeatherDisplay:10.37,2013-01-14 15:10:00,
2013-01-14 07:15:00,33.8,10.2,30.36,NNW,328,0.3,1.1,37,0.00,CLR,,0.00,WeatherDisplay:10.37,2013-01-14 15:15:00,
2013-01-14 07:20:00,33.0,11.8,30.35,NE,44,0.0,0.0,41,0.00,CLR,,0.00,WeatherDisplay:10.37,2013-01-14 15:20:00,
2013-01-14 07:25:00,32.2,11.1,30.36,NE,44,0.0,0.0,41,0.00,CLR,,0.00,WeatherDisplay:10.37,2013-01-14 15:25:00,
2013-01-14 07:30:00,31.9,10.8,30.36,NE,38,0.0,0.0,41,0.00,CLR,,0.00,WeatherDisplay:10.37,2013-01-14 15:30:00,
2013-01-14 07:35:00,32.0,10.9,30.36,NW,326,0.0,1.1,41,0.00,CLR,,0.00,WeatherDisplay:10.37,2013-01-14 15:35:00,
2013-01-14 07:40:00,32.2,11.1,30.36,NW,326,0.0,0.0,41,0.00,CLR,,0.00,WeatherDisplay:10.37,2013-01-14 15:40:00,
2013-01-14 07:45:00,31.8,10.7,30.37,NW,315,0.3,2.3,41,0.00,CLR,,0.00,WeatherDisplay:10.37,2013-01-14 15:45:00,
2013-01-14 07:50:00,31.8,10.7,30.37,WSW,254,0.1,1.1,41,0.00,CLR,,0.00,WeatherDisplay:10.37,2013-01-14 15:50:00,
2013-01-14 07:55:00,33.5,12.3,30.37,NW,320,0.8,2.3,41,0.00,CLR,,0.00,WeatherDisplay:10.37,2013-01-14 15:55:00,
2013-01-14 08:00:00,33.2,12.0,30.37,NW,320,0.0,0.0,41,0.00,CLR,,0.00,WeatherDisplay:10.37,2013-01-14 16:00:00,
2013-01-14 08:05:00,33.7,11.3,30.38,NW,320,0.0,0.0,39,0.00,CLR,,0.00,WeatherDisplay:10.37,2013-01-14 16:05:00,
2013-01-14 08:10:00,34.1,11.7,30.38,NW,320,0.0,0.0,39,0.00,CLR,,0.00,WeatherDisplay:10.37,2013-01-14 16:10:00,
2013-01-14 08:15:00,35.3,12.8,30.38,SW,224,0.0,1.1,39,0.00,CLR,,0.00,WeatherDisplay:10.37,2013-01-14 16:15:00,
2013-01-14 08:20:00,35.5,13.0,30.38,SW,226,0.0,0.0,39,0.00,CLR,,0.00,WeatherDisplay:10.37,2013-01-14 16:20:00,
2013-01-14 08:25:00,36.8,14.1,30.38,West,278,0.1,2.3,39,0.00,CLR,,0.00,WeatherDisplay:10.37,2013-01-14 16:25:00,
2013-01-14 08:30:00,37.1,14.4,30.38,West,278,0.0,0.0,39,0.00,CLR,,0.00,WeatherDisplay:10.37,2013-01-14 16:30:00,
2013-01-14 08:35:00,37.8,15.0,30.38,NW,325,0.2,0.9,39,0.00,CLR,,0.00,WeatherDisplay:10.37,2013-01-14 16:35:00,
2013-01-14 08:40:00,38.7,15.8,30.38,WSW,240,2.1,3.5,39,0.00,CLR,,0.00,WeatherDisplay:10.37,2013-01-14 16:40:00,
2013-01-14 08:45:00,39.1,16.2,30.38,WSW,244,3.6,4.8,39,0.00,CLR,,0.00,WeatherDisplay:10.37,2013-01-14 16:45:00,
2013-01-14 08:50:00,40.0,17.0,30.38,West,261,2.0,3.7,39,0.00,CLR,,0.00,WeatherDisplay:10.37,2013-01-14 16:50:00,
2013-01-14 08:55:00,40.4,17.4,30.38,West,264,0.0,1.1,39,0.00,CLR,,0.00,WeatherDisplay:10.37,2013-01-14 16:55:00,
2013-01-14 09:00:00,40.3,17.3,30.38,South,186,1.2,2.3,39,0.00,CLR,,0.00,WeatherDisplay:10.37,2013-01-14 17:00:00,
2013-01-14 09:05:00,41.3,18.2,30.38,West,270,2.9,5.2,39,0.00,CLR,,0.00,WeatherDisplay:10.37,2013-01-14 17:05:00,
2013-01-14 09:10:00,41.8,18.6,30.38,West,263,2.9,3.5,39,0.00,CLR,,0.00,WeatherDisplay:10.37,2013-01-14 17:10:00,
2013-01-14 09:15:00,42.4,19.2,30.38,West,264,2.1,3.5,39,0.00,CLR,,0.00,WeatherDisplay:10.37,2013-01-14 17:15:00,
2013-01-14 09:20:00,43.1,18.6,30.38,West,267,1.3,2.3,37,0.00,CLR,,0.00,WeatherDisplay:10.37,2013-01-14 17:20:00,
2013-01-14 09:25:00,43.5,18.9,30.38,West,263,2.5,3.9,37,0.00,CLR,,0.00,WeatherDisplay:10.37,2013-01-14 17:25:00,
2013-01-14 09:30:00,43.6,19.0,30.38,South,175,2.2,2.7,37,0.00,CLR,,0.00,WeatherDisplay:10.37,2013-01-14 17:30:00,
2013-01-14 09:35:00,44.8,20.1,30.38,SSW,203,0.2,3.5,37,0.00,CLR,,0.00,WeatherDisplay:10.37,2013-01-14 17:35:00,
2013-01-14 09:40:00,44.8,20.1,30.38,West,260,2.8,5.8,37,0.00,CLR,,0.00,WeatherDisplay:10.37,2013-01-14 17:40:00,
2013-01-14 09:45:00,45.4,20.6,30.38,West,264,1.4,2.3,37,0.00,CLR,,0.00,WeatherDisplay:10.37,2013-01-14 17:45:00,
2013-01-14 09:50:00,46.0,21.1,30.38,West,281,0.8,1.7,37,0.00,CLR,,0.00,WeatherDisplay:10.37,2013-01-14 17:50:00,
2013-01-14 09:55:00,46.1,21.2,30.38,NNW,332,2.5,4.6,37,0.00,CLR,,0.00,WeatherDisplay:10.37,2013-01-14 17:55:00,
2013-01-14 10:00:00,47.0,22.0,30.38,South,184,2.1,4.6,37,0.00,CLR,,0.00,WeatherDisplay:10.37,2013-01-14 18:00:00,
2013-01-14 10:05:00,47.0,22.0,30.39,SSW,195,1.5,3.2,37,0.00,CLR,,0.00,WeatherDisplay:10.37,2013-01-14 18:05:00,
2013-01-14 10:10:00,47.3,22.3,30.39,WNW,288,0.5,2.3,37,0.00,CLR,,0.00,WeatherDisplay:10.37,2013-01-14 18:10:00,
2013-01-14 10:15:00,47.9,22.8,30.39,SSW,209,1.5,2.3,37,0.00,CLR,,0.00,WeatherDisplay:10.37,2013-01-14 18:15:00,
2013-01-14 10:20:00,47.8,21.4,30.39,SE,143,2.3,4.0,35,0.00,CLR,,0.00,WeatherDisplay:10.37,2013-01-14 18:20:00,
2013-01-14 10:25:00,49.3,22.8,30.39,NW,320,3.0,5.8,35,0.00,CLR,,0.00,WeatherDisplay:10.37,2013-01-14 18:25:00,
2013-01-14 10:30:00,49.7,23.1,30.39,NNW,332,3.9,8.1,35,0.00,CLR,,0.00,WeatherDisplay:10.37,2013-01-14 18:30:00,
2013-01-14 10:35:00,49.8,23.2,30.39,NNW,342,4.0,9.2,35,0.00,CLR,,0.00,WeatherDisplay:10.37,2013-01-14 18:35:00,
2013-01-14 10:40:00,50.6,23.9,30.39,NNW,339,3.3,4.6,35,0.00,CLR,,0.00,WeatherDisplay:10.37,2013-01-14 18:40:00,
2013-01-14 10:45:00,50.6,23.9,30.39,ENE,59,3.8,6.9,35,0.00,CLR,,0.00,WeatherDisplay:10.37,2013-01-14 18:45:00,
2013-01-14 10:50:00,50.8,24.1,30.38,ENE,65,4.1,6.9,35,0.00,CLR,,0.00,WeatherDisplay:10.37,2013-01-14 18:50:00,
2013-01-14 10:55:00,51.2,24.5,30.38,ENE,78,6.0,10.4,35,0.00,CLR,,0.00,WeatherDisplay:10.37,2013-01-14 18:55:00,
2013-01-14 11:00:00,51.0,24.3,30.38,NW,304,5.8,11.3,35,0.00,CLR,,0.00,WeatherDisplay:10.37,2013-01-14 19:00:00,
2013-01-14 11:05:00,51.3,24.5,30.38,North,360,4.8,6.9,35,0.00,CLR,,0.00,WeatherDisplay:10.37,2013-01-14 19:05:00,
2013-01-14 11:10:00,51.2,24.5,30.38,West,277,4.0,8.1,35,0.00,CLR,,0.00,WeatherDisplay:10.37,2013-01-14 19:10:00,
2013-01-14 11:15:00,51.9,25.1,30.38,North,352,3.3,13.8,35,0.00,CLR,,0.00,WeatherDisplay:10.37,2013-01-14 19:15:00,
2013-01-14 11:20:00,52.5,23.5,30.37,East,89,3.2,11.5,32,0.00,CLR,,0.00,WeatherDisplay:10.37,2013-01-14 19:20:00,
2013-01-14 11:25:00,52.2,23.2,30.37,North,8,7.8,11.3,32,0.00,CLR,,0.00,WeatherDisplay:10.37,2013-01-14 19:25:00,
2013-01-14 11:30:00,52.4,23.4,30.37,NNW,346,5.1,12.7,32,0.00,CLR,,0.00,WeatherDisplay:10.37,2013-01-14 19:30:00,
2013-01-14 11:35:00,52.5,23.5,30.36,NNW,342,2.6,5.8,32,0.00,CLR,,0.00,WeatherDisplay:10.37,2013-01-14 19:35:00,
2013-01-14 11:40:00,52.8,23.7,30.36,WNW,287,4.8,8.1,32,0.00,CLR,,0.00,WeatherDisplay:10.37,2013-01-14 19:40:00,
2013-01-14 11:45:00,53.1,24.0,30.36,NNE,25,3.9,9.2,32,0.00,CLR,,0.00,WeatherDisplay:10.37,2013-01-14 19:45:00,
2013-01-14 11:50:00,54.4,25.1,30.35,NNW,346,6.0,10.5,32,0.00,CLR,,0.00,WeatherDisplay:10.37,2013-01-14 19:50:00,
2013-01-14 11:55:00,54.3,25.0,30.34,NNW,330,6.3,9.2,32,0.00,CLR,,0.00,WeatherDisplay:10.37,2013-01-14 19:55:00,
2013-01-14 12:00:00,54.8,25.5,30.34,NE,42,0.6,3.5,32,0.00,CLR,,0.00,WeatherDisplay:10.37,2013-01-14 20:00:00,
2013-01-14 12:05:00,54.9,23.2,30.34,SE,130,5.8,12.4,29,0.00,CLR,,0.00,WeatherDisplay:10.37,2013-01-14 20:05:00,
2013-01-14 12:10:00,54.6,22.9,30.34,WNW,285,3.2,4.9,29,0.00,CLR,,0.00,WeatherDisplay:10.37,2013-01-14 20:10:00,
2013-01-14 12:15:00,54.7,23.0,30.34,ESE,120,4.8,7.1,29,0.00,CLR,,0.00,WeatherDisplay:10.37,2013-01-14 20:15:00,
2013-01-14 12:20:00,54.9,23.2,30.34,ENE,72,4.7,9.2,29,0.00,CLR,,0.00,WeatherDisplay:10.37,2013-01-14 20:20:00,
2013-01-14 12:25:00,54.2,22.6,30.34,East,82,5.8,9.2,29,0.00,CLR,,0.00,WeatherDisplay:10.37,2013-01-14 20:25:00,
2013-01-14 12:30:00,54.3,22.7,30.34,North,360,3.8,9.2,29,0.00,CLR,,0.00,WeatherDisplay:10.37,2013-01-14 20:30:00,
2013-01-14 12:35:00,54.8,23.1,30.34,North,359,2.5,6.9,29,0.00,CLR,,0.00,WeatherDisplay:10.37,2013-01-14 20:35:00,
2013-01-14 12:40:00,54.5,22.9,30.34,East,80,7.4,11.5,29,0.00,CLR,,0.00,WeatherDisplay:10.37,2013-01-14 20:40:00,
2013-01-14 12:45:00,54.3,22.7,30.34,NNE,30,5.7,12.7,29,0.00,CLR,,0.00,WeatherDisplay:10.37,2013-01-14 20:45:00,
2013-01-14 12:50:00,54.9,23.2,30.34,NNE,17,5.2,11.5,29,0.00,CLR,,0.00,WeatherDisplay:10.37,2013-01-14 20:50:00,
2013-01-14 12:55:00,55.3,23.5,30.34,ESE,104,4.7,9.2,29,0.00,CLR,,0.00,WeatherDisplay:10.37,2013-01-14 20:55:00,
2013-01-14 13:00:00,55.5,23.7,30.34,North,8,3.5,10.4,29,0.00,CLR,,0.00,WeatherDisplay:10.37,2013-01-14 21:00:00,
2013-01-14 13:05:00,55.0,23.3,30.34,NNE,17,4.2,15.0,29,0.00,CLR,,0.00,WeatherDisplay:10.37,2013-01-14 21:05:00,
2013-01-14 13:10:00,54.5,22.9,30.34,NNE,16,6.1,10.4,29,0.00,CLR,,0.00,WeatherDisplay:10.37,2013-01-14 21:10:00,
2013-01-14 13:15:00,55.0,23.3,30.34,NNW,332,5.0,9.2,29,0.00,CLR,,0.00,WeatherDisplay:10.37,2013-01-14 21:15:00,
2013-01-14 13:20:00,54.9,23.2,30.34,NNE,30,6.0,8.3,29,0.00,CLR,,0.00,WeatherDisplay:10.37,2013-01-14 21:20:00,
2013-01-14 13:25:00,55.2,23.5,30.34,North,10,4.6,9.5,29,0.00,CLR,,0.00,WeatherDisplay:10.37,2013-01-14 21:25:00,
2013-01-14 13:30:00,55.6,23.8,30.34,North,360,4.2,9.2,29,0.00,CLR,,0.00,WeatherDisplay:10.37,2013-01-14 21:30:00,
2013-01-14 13:35:00,55.1,23.4,30.34,ENE,65,6.3,11.5,29,0.00,CLR,,0.00,WeatherDisplay:10.37,2013-01-14 21:35:00,
2013-01-14 13:40:00,54.9,23.2,30.34,NNE,32,7.1,15.0,29,0.00,CLR,,0.00,WeatherDisplay:10.37,2013-01-14 21:40:00,
2013-01-14 13:45:00,54.7,23.0,30.34,NE,47,7.3,10.4,29,0.00,CLR,,0.00,WeatherDisplay:10.37,2013-01-14 21:45:00,
2013-01-14 13:50:00,54.9,23.2,30.34,ENE,65,8.7,13.8,29,0.00,CLR,,0.00,WeatherDisplay:10.37,2013-01-14 21:50:00,
2013-01-14 13:55:00,54.9,23.2,30.34,East,82,7.3,11.5,29,0.00,CLR,,0.00,WeatherDisplay:10.37,2013-01-14 21:55:00,
2013-01-14 14:00:00,54.7,23.0,30.34,East,83,4.6,16.1,29,0.00,CLR,,0.00,WeatherDisplay:10.37,2013-01-14 22:00:00,
2013-01-14 14:05:00,55.1,23.4,30.34,East,83,6.2,8.1,29,0.00,CLR,,0.00,WeatherDisplay:10.37,2013-01-14 22:05:00,
2013-01-14 14:10:00,55.1,23.4,30.34,SE,144,6.9,10.4,29,0.00,CLR,,0.00,WeatherDisplay:10.37,2013-01-14 22:10:00,
2013-01-14 14:15:00,55.0,23.3,30.34,North,8,2.8,12.7,29,0.00,CLR,,0.00,WeatherDisplay:10.37,2013-01-14 22:15:00,
2013-01-14 14:20:00,54.7,20.4,30.34,ENE,69,9.0,13.8,26,0.00,CLR,,0.00,WeatherDisplay:10.37,2013-01-14 22:20:00,
2013-01-14 14:25:00,54.7,20.4,30.34,East,95,7.2,10.4,26,0.00,CLR,,0.00,WeatherDisplay:10.37,2013-01-14 22:25:00,
2013-01-14 14:30:00,54.9,20.6,30.34,ENE,78,4.7,8.1,26,0.00,CLR,,0.00,WeatherDisplay:10.37,2013-01-14 22:30:00,
2013-01-14 14:35:00,55.0,20.7,30.34,NE,52,3.3,6.0,26,0.00,CLR,,0.00,WeatherDisplay:10.37,2013-01-14 22:35:00,
2013-01-14 14:40:00,55.0,20.7,30.34,ESE,103,5.1,8.3,26,0.00,CLR,,0.00,WeatherDisplay:10.37,2013-01-14 22:40:00,
2013-01-14 14:45:00,54.5,20.3,30.34,North,3,5.2,11.5,26,0.00,CLR,,0.00,WeatherDisplay:10.37,2013-01-14 22:45:00,
2013-01-14 14:50:00,54.4,20.2,30.34,ENE,69,8.9,15.0,26,0.00,CLR,,0.00,WeatherDisplay:10.37,2013-01-14 22:50:00,
2013-01-14 14:55:00,54.1,19.9,30.34,East,92,6.0,9.2,26,0.00,CLR,,0.00,WeatherDisplay:10.37,2013-01-14 22:55:00,
2013-01-14 15:00:00,54.1,19.9,30.35,ESE,113,8.3,12.7,26,0.00,CLR,,0.00,WeatherDisplay:10.37,2013-01-14 23:00:00,
2013-01-14 15:05:00,54.2,20.0,30.35,NNW,333,3.9,11.5,26,0.00,CLR,,0.00,WeatherDisplay:10.37,2013-01-14 23:05:00,
2013-01-14 15:10:00,54.3,20.1,30.35,ENE,68,3.9,7.0,26,0.00,CLR,,0.00,WeatherDisplay:10.37,2013-01-14 23:10:00,
2013-01-14 15:15:00,54.4,20.2,30.34,East,88,4.7,10.5,26,0.00,CLR,,0.00,WeatherDisplay:10.37,2013-01-14 23:15:00,
2013-01-14 15:20:00,54.3,21.0,30.35,East,85,3.5,7.0,27,0.00,CLR,,0.00,WeatherDisplay:10.37,2013-01-14 23:20:00,
2013-01-14 15:25:00,54.4,21.1,30.35,East,92,4.4,7.0,27,0.00,CLR,,0.00,WeatherDisplay:10.37,2013-01-14 23:25:00,
2013-01-14 15:30:00,54.5,21.2,30.34,NNW,340,0.7,5.8,27,0.00,CLR,,0.00,WeatherDisplay:10.37,2013-01-14 23:30:00,
2013-01-14 15:35:00,54.1,20.8,30.34,East,82,2.5,4.6,27,0.00,CLR,,0.00,WeatherDisplay:10.37,2013-01-14 23:35:00,
2013-01-14 15:40:00,54.2,20.9,30.34,NNE,17,0.6,6.9,27,0.00,CLR,,0.00,WeatherDisplay:10.37,2013-01-14 23:40:00,
2013-01-14 15:45:00,53.6,20.4,30.34,NW,315,3.1,8.1,27,0.00,CLR,,0.00,WeatherDisplay:10.37,2013-01-14 23:45:00,
2013-01-14 15:50:00,53.8,20.6,30.34,ENE,62,1.2,3.1,27,0.00,CLR,,0.00,WeatherDisplay:10.37,2013-01-14 23:50:00,
2013-01-14 15:55:00,53.5,20.3,30.34,North,360,1.6,5.8,27,0.00,CLR,,0.00,WeatherDisplay:10.37,2013-01-14 23:55:00,
2013-01-14 16:00:00,53.4,20.2,30.34,NW,319,2.1,3.6,27,0.00,CLR,,0.00,WeatherDisplay:10.37,2013-01-15 00:00:00,
2013-01-14 16:05:00,53.5,22.8,30.34,ESE,106,1.0,3.5,30,0.00,CLR,,0.00,WeatherDisplay:10.37,2013-01-15 00:05:00,
2013-01-14 16:10:00,53.6,22.9,30.34,NW,308,1.2,3.6,30,0.00,CLR,,0.00,WeatherDisplay:10.37,2013-01-15 00:10:00,
2013-01-14 16:15:00,53.2,22.5,30.34,North,352,1.2,3.5,30,0.00,CLR,,0.00,WeatherDisplay:10.37,2013-01-15 00:15:00,
2013-01-14 16:20:00,53.0,22.4,30.35,North,354,0.2,3.5,30,0.00,CLR,,0.00,WeatherDisplay:10.37,2013-01-15 00:20:00,
2013-01-14 16:25:00,52.9,22.3,30.34,ESE,102,1.4,3.2,30,0.00,CLR,,0.00,WeatherDisplay:10.37,2013-01-15 00:25:00,
2013-01-14 16:30:00,52.5,21.9,30.34,North,8,0.4,2.6,30,0.00,CLR,,0.00,WeatherDisplay:10.37,2013-01-15 00:30:00,
2013-01-14 16:35:00,52.2,21.7,30.34,ESE,113,0.0,1.1,30,0.00,CLR,,0.00,WeatherDisplay:10.37,2013-01-15 00:35:00,
2013-01-14 16:40:00,52.0,21.5,30.34,East,99,0.0,0.0,30,0.00,CLR,,0.00,WeatherDisplay:10.37,2013-01-15 00:40:00,
2013-01-14 16:45:00,51.7,21.2,30.35,South,171,2.7,5.8,30,0.00,CLR,,0.00,WeatherDisplay:10.37,2013-01-15 00:45:00,
2013-01-14 16:50:00,51.3,20.9,30.35,WSW,247,3.5,4.6,30,0.00,CLR,,0.00,WeatherDisplay:10.37,2013-01-15 00:50:00,
2013-01-14 16:55:00,50.9,20.5,30.35,WSW,257,3.0,4.2,30,0.00,CLR,,0.00,WeatherDisplay:10.37,2013-01-15 00:55:00,
2013-01-14 17:00:00,50.7,20.4,30.35,South,171,0.3,1.1,30,0.00,CLR,,0.00,WeatherDisplay:10.37,2013-01-15 01:00:00,
2013-01-14 17:05:00,50.1,19.8,30.36,WSW,239,0.7,1.9,30,0.00,CLR,,0.00,WeatherDisplay:10.37,2013-01-15 01:05:00,
2013-01-14 17:10:00,49.5,19.3,30.36,South,175,0.8,2.2,30,0.00,CLR,,0.00,WeatherDisplay:10.37,2013-01-15 01:10:00,
2013-01-14 17:15:00,48.4,18.3,30.36,South,171,0.0,0.0,30,0.00,CLR,,0.00,WeatherDisplay:10.37,2013-01-15 01:15:00,
2013-01-14 17:20:00,48.5,30.7,30.35,SW,222,0.7,3.5,50,0.00,CLR,,0.00,WeatherDisplay:10.37,2013-01-15 01:20:00,
2013-01-14 17:25:00,47.8,30.0,30.35,SSE,165,0.0,0.0,50,0.00,CLR,,0.00,WeatherDisplay:10.37,2013-01-15 01:25:00,
2013-01-14 17:30:00,47.1,29.4,30.36,SSE,165,0.0,0.0,50,0.00,CLR,,0.00,WeatherDisplay:10.37,2013-01-15 01:30:00,
2013-01-14 17:35:00,46.3,28.7,30.36,SSE,165,0.0,0.0,50,0.00,CLR,,0.00,WeatherDisplay:10.37,2013-01-15 01:35:00,
2013-01-14 17:40:00,45.3,27.7,30.36,SSE,165,0.0,0.0,50,0.00,CLR,,0.00,WeatherDisplay:10.37,2013-01-15 01:40:00,
2013-01-14 17:45:00,45.1,27.6,30.36,SSE,165,0.0,0.0,50,0.00,CLR,,0.00,WeatherDisplay:10.37,2013-01-15 01:45:00,
2013-01-14 17:50:00,45.0,27.5,30.36,SSE,165,0.0,0.0,50,0.00,CLR,,0.00,WeatherDisplay:10.37,2013-01-15 01:50:00,
2013-01-14 17:55:00,44.6,27.1,30.36,SSE,165,0.0,0.0,50,0.00,CLR,,0.00,WeatherDisplay:10.37,2013-01-15 01:55:00,
2013-01-14 18:00:00,44.4,26.9,30.36,SSE,165,0.0,0.0,50,0.00,CLR,,0.00,WeatherDisplay:10.37,2013-01-15 02:00:00,
2013-01-14 18:05:00,43.9,26.4,30.36,SSE,165,0.0,0.0,50,0.00,CLR,,0.00,WeatherDisplay:10.37,2013-01-15 02:05:00,
2013-01-14 18:10:00,43.1,25.7,30.36,SSE,165,0.0,0.0,50,0.00,CLR,,0.00,WeatherDisplay:10.37,2013-01-15 02:10:00,
2013-01-14 18:15:00,42.6,25.2,30.36,SSE,165,0.0,0.0,50,0.00,CLR,,0.00,WeatherDisplay:10.37,2013-01-15 02:15:00,
2013-01-14 18:20:00,42.6,24.8,30.36,SSE,165,0.0,0.0,49,0.00,CLR,,0.00,WeatherDisplay:10.37,2013-01-15 02:20:00,
2013-01-14 18:25:00,42.1,24.3,30.36,SSE,165,0.0,0.0,49,0.00,CLR,,0.00,WeatherDisplay:10.37,2013-01-15 02:25:00,
2013-01-14 18:30:00,41.9,24.1,30.36,SSE,165,0.0,0.0,49,0.00,CLR,,0.00,WeatherDisplay:10.37,2013-01-15 02:30:00,
2013-01-14 18:35:00,41.8,24.0,30.36,SSE,165,0.0,0.0,49,0.00,CLR,,0.00,WeatherDisplay:10.37,2013-01-15 02:35:00,
2013-01-14 18:40:00,41.6,23.8,30.36,SSE,165,0.0,0.0,49,0.00,CLR,,0.00,WeatherDisplay:10.37,2013-01-15 02:40:00,
2013-01-14 18:45:00,41.4,23.6,30.36,SSE,165,0.0,0.0,49,0.00,CLR,,0.00,WeatherDisplay:10.37,2013-01-15 02:45:00,
2013-01-14 18:50:00,41.5,23.7,30.37,SSE,165,0.0,0.0,49,0.00,CLR,,0.00,WeatherDisplay:10.37,2013-01-15 02:50:00,
2013-01-14 18:55:00,42.0,24.2,30.36,SSE,165,0.0,0.0,49,0.00,CLR,,0.00,WeatherDisplay:10.37,2013-01-15 02:55:00,
2013-01-14 19:00:00,40.6,22.9,30.37,SSE,165,0.0,0.0,49,0.00,CLR,,0.00,WeatherDisplay:10.37,2013-01-15 03:00:00,
2013-01-14 19:05:00,40.3,22.6,30.37,SSE,165,0.0,0.0,49,0.00,CLR,,0.00,WeatherDisplay:10.37,2013-01-15 03:05:00,
2013-01-14 19:10:00,40.2,22.5,30.37,SSE,165,0.0,0.0,49,0.00,CLR,,0.00,WeatherDisplay:10.37,2013-01-15 03:10:00,
2013-01-14 19:15:00,40.7,23.0,30.37,SSE,165,0.0,0.0,49,0.00,CLR,,0.00,WeatherDisplay:10.37,2013-01-15 03:15:00,
2013-01-14 19:20:00,40.0,20.3,30.37,SSE,165,0.0,0.0,45,0.00,CLR,,0.00,WeatherDisplay:10.37,2013-01-15 03:20:00,
2013-01-14 19:25:00,39.8,20.2,30.37,SSE,165,0.0,0.0,45,0.00,CLR,,0.00,WeatherDisplay:10.37,2013-01-15 03:25:00,
2013-01-14 19:30:00,40.2,20.5,30.37,SSE,165,0.0,0.0,45,0.00,CLR,,0.00,WeatherDisplay:10.37,2013-01-15 03:30:00,
2013-01-14 19:35:00,40.4,20.7,30.37,NNW,339,1.5,2.4,45,0.00,CLR,,0.00,WeatherDisplay:10.37,2013-01-15 03:35:00,
2013-01-14 19:40:00,39.8,20.2,30.37,West,272,0.4,1.6,45,0.00,CLR,,0.00,WeatherDisplay:10.37,2013-01-15 03:40:00,
2013-01-14 19:45:00,39.7,20.1,30.37,West,267,1.6,1.9,45,0.00,CLR,,0.00,WeatherDisplay:10.37,2013-01-15 03:45:00,
2013-01-14 19:50:00,39.6,20.0,30.37,WSW,251,2.2,3.5,45,0.00,CLR,,0.00,WeatherDisplay:10.37,2013-01-15 03:50:00,
2013-01-14 19:55:00,39.9,20.3,30.38,WSW,246,0.9,2.3,45,0.00,CLR,,0.00,WeatherDisplay:10.37,2013-01-15 03:55:00,
2013-01-14 20:00:00,40.3,20.6,30.38,NW,306,0.2,1.0,45,0.00,CLR,,0.00,WeatherDisplay:10.37,2013-01-15 04:00:00,
2013-01-14 20:05:00,40.2,20.5,30.38,NW,315,0.0,0.0,45,0.00,CLR,,0.00,WeatherDisplay:10.37,2013-01-15 04:05:00,
2013-01-14 20:10:00,39.3,19.7,30.38,West,278,0.4,1.3,45,0.00,CLR,,0.00,WeatherDisplay:10.37,2013-01-15 04:10:00,
2013-01-14 20:15:00,39.8,20.2,30.38,WNW,289,0.0,0.0,45,0.00,CLR,,0.00,WeatherDisplay:10.37,2013-01-15 04:15:00,
2013-01-14 20:20:00,39.1,28.3,30.38,WNW,289,0.0,0.0,65,0.00,CLR,,0.00,WeatherDisplay:10.37,2013-01-15 04:20:00,
2013-01-14 20:25:00,38.5,27.7,30.38,WNW,289,0.0,0.0,65,0.00,CLR,,0.00,WeatherDisplay:10.37,2013-01-15 04:25:00,
2013-01-14 20:30:00,38.6,27.8,30.37,WNW,289,0.0,0.0,65,0.00,CLR,,0.00,WeatherDisplay:10.37,2013-01-15 04:30:00,
2013-01-14 20:35:00,38.6,27.8,30.37,WNW,289,0.0,0.0,65,0.00,CLR,,0.00,WeatherDisplay:10.37,2013-01-15 04:35:00,
2013-01-14 20:40:00,38.3,27.6,30.37,West,270,1.2,1.7,65,0.00,CLR,,0.00,WeatherDisplay:10.37,2013-01-15 04:40:00,
2013-01-14 20:45:00,39.5,28.7,30.38,West,265,0.0,0.0,65,0.00,CLR,,0.00,WeatherDisplay:10.37,2013-01-15 04:45:00,
2013-01-14 20:50:00,38.5,27.7,30.38,West,265,0.0,0.0,65,0.00,CLR,,0.00,WeatherDisplay:10.37,2013-01-15 04:50:00,
2013-01-14 20:55:00,38.5,27.7,30.38,WNW,296,0.0,1.1,65,0.00,CLR,,0.00,WeatherDisplay:10.37,2013-01-15 04:55:00,
2013-01-14 21:00:00,38.4,27.7,30.37,WNW,296,0.0,0.0,65,0.00,CLR,,0.00,WeatherDisplay:10.37,2013-01-15 05:00:00,
2013-01-14 21:01:00,38.2,27.5,30.37,WNW,296,0.0,0.0,65,0.00,CLR,,0.00,WeatherDisplay:10.37,2013-01-15 05:01:00,
2013-01-14 21:02:00,38.1,27.4,30.37,WNW,296,0.0,0.0,65,0.00,CLR,,0.00,WeatherDisplay:10.37,2013-01-15 05:02:00,
2013-01-14 21:06:00,38.1,27.4,30.38,WNW,296,0.0,0.0,65,0.00,CLR,,0.00,WeatherDisplay:10.37,2013-01-15 05:06:00,
2013-01-14 21:11:00,38.6,27.8,30.38,WNW,296,0.0,0.0,65,0.00,CLR,,0.00,WeatherDisplay:10.37,2013-01-15 05:11:00,
2013-01-14 21:16:00,38.5,27.7,30.38,WNW,296,0.0,0.0,65,0.00,CLR,,0.00,WeatherDisplay:10.37,2013-01-15 05:16:00,
2013-01-14 21:21:00,37.8,27.1,30.38,WNW,296,0.0,0.0,65,0.00,CLR,,0.00,WeatherDisplay:10.37,2013-01-15 05:21:00,
2013-01-14 21:26:00,37.4,26.7,30.38,WNW,296,0.0,0.0,65,0.00,CLR,,0.00,WeatherDisplay:10.37,2013-01-15 05:26:00,
2013-01-14 21:31:00,37.6,26.9,30.38,WNW,296,0.0,0.0,65,0.00,CLR,,0.00,WeatherDisplay:10.37,2013-01-15 05:31:00,
2013-01-14 21:36:00,38.1,30.2,30.38,WNW,296,0.0,0.0,73,0.00,CLR,,0.00,WeatherDisplay:10.37,2013-01-15 05:36:00,
2013-01-14 21:41:00,37.4,29.5,30.38,WNW,296,0.0,0.0,73,0.00,CLR,,0.00,WeatherDisplay:10.37,2013-01-15 05:41:00,
2013-01-14 21:46:00,37.2,29.3,30.38,WNW,296,0.0,0.0,73,0.00,CLR,,0.00,WeatherDisplay:10.37,2013-01-15 05:46:00,
2013-01-14 21:51:00,37.3,29.4,30.38,WNW,296,0.0,0.0,73,0.00,CLR,,0.00,WeatherDisplay:10.37,2013-01-15 05:51:00,
2013-01-14 21:56:00,37.3,29.4,30.38,WNW,296,0.0,0.0,73,0.00,CLR,,0.00,WeatherDisplay:10.37,2013-01-15 05:56:00,
2013-01-14 22:01:00,37.7,25.8,30.38,WNW,296,0.0,0.0,62,0.00,CLR,,0.00,WeatherDisplay:10.37,2013-01-15 06:01:00,
2013-01-14 22:06:00,36.9,25.1,30.38,WNW,296,0.0,0.0,62,0.00,CLR,,0.00,WeatherDisplay:10.37,2013-01-15 06:06:00,
2013-01-14 22:11:00,36.6,24.8,30.39,WNW,296,0.0,0.0,62,0.00,CLR,,0.00,WeatherDisplay:10.37,2013-01-15 06:11:00,
2013-01-14 22:16:00,37.1,25.3,30.39,WNW,296,0.0,0.0,62,0.00,CLR,,0.00,WeatherDisplay:10.37,2013-01-15 06:16:00,
2013-01-14 22:21:00,37.1,25.3,30.39,WNW,296,0.0,0.0,62,0.00,CLR,,0.00,WeatherDisplay:10.37,2013-01-15 06:21:00,
2013-01-14 22:26:00,37.4,25.6,30.39,WNW,296,0.0,0.0,62,0.00,CLR,,0.00,WeatherDisplay:10.37,2013-01-15 06:26:00,
2013-01-14 22:31:00,36.5,24.7,30.39,WNW,296,0.0,0.0,62,0.00,CLR,,0.00,WeatherDisplay:10.37,2013-01-15 06:31:00,
2013-01-14 22:36:00,36.2,24.4,30.39,WNW,296,0.0,0.0,62,0.00,CLR,,0.00,WeatherDisplay:10.37,2013-01-15 06:36:00,
2013-01-14 22:41:00,36.9,25.1,30.39,WNW,296,0.0,0.0,62,0.00,CLR,,0.00,WeatherDisplay:10.37,2013-01-15 06:41:00,
2013-01-14 22:46:00,36.2,24.4,30.40,WNW,296,0.0,0.0,62,0.00,CLR,,0.00,WeatherDisplay:10.37,2013-01-15 06:46:00,
2013-01-14 22:51:00,35.8,24.0,30.40,WNW,296,0.0,0.0,62,0.00,CLR,,0.00,WeatherDisplay:10.37,2013-01-15 06:51:00,
2013-01-14 22:56:00,35.8,24.0,30.40,WNW,296,0.0,0.0,62,0.00,CLR,,0.00,WeatherDisplay:10.37,2013-01-15 06:56:00,
2013-01-14 23:01:00,35.4,23.7,30.40,WNW,296,0.0,0.0,62,0.00,CLR,,0.00,WeatherDisplay:10.37,2013-01-15 07:01:00,
2013-01-14 23:06:00,35.8,24.0,30.40,WNW,296,0.0,0.0,62,0.00,CLR,,0.00,WeatherDisplay:10.37,2013-01-15 07:06:00,
2013-01-14 23:11:00,35.2,23.5,30.40,WNW,296,0.0,0.0,62,0.00,CLR,,0.00,WeatherDisplay:10.37,2013-01-15 07:11:00,
2013-01-14 23:16:00,35.0,27.2,30.40,WNW,296,0.0,0.0,73,0.00,CLR,,0.00,WeatherDisplay:10.37,2013-01-15 07:16:00,
2013-01-14 23:21:00,34.9,27.1,30.40,WNW,296,0.0,0.0,73,0.00,CLR,,0.00,WeatherDisplay:10.37,2013-01-15 07:21:00,
2013-01-14 23:26:00,35.7,27.9,30.40,WNW,296,0.0,0.0,73,0.00,CLR,,0.00,WeatherDisplay:10.37,2013-01-15 07:26:00,
2013-01-14 23:31:00,35.2,27.4,30.40,WNW,296,0.0,0.0,73,0.00,CLR,,0.00,WeatherDisplay:10.37,2013-01-15 07:31:00,
2013-01-14 23:36:00,35.3,27.5,30.41,WNW,296,0.0,0.0,73,0.00,CLR,,0.00,WeatherDisplay:10.37,2013-01-15 07:36:00,
2013-01-14 23:41:00,35.2,27.4,30.41,WNW,296,0.0,0.0,73,0.00,CLR,,0.00,WeatherDisplay:10.37,2013-01-15 07:41:00,
2013-01-14 23:46:00,34.6,26.8,30.41,WNW,296,0.0,0.0,73,0.00,CLR,,0.00,WeatherDisplay:10.37,2013-01-15 07:46:00,
2013-01-14 23:51:00,35.5,27.7,30.41,WNW,296,0.0,0.0,73,0.00,CLR,,0.00,WeatherDisplay:10.37,2013-01-15 07:51:00,
2013-01-14 23:56:00,35.0,27.2,30.42,WNW,296,0.0,0.0,73,0.00,CLR,,0.00,WeatherDisplay:10.37,2013-01-15 07:56:00,